STARLINK-2614 (48380 NORAD) Tracking and Keplerian Element Data

This shows tracking and keplerian element data for the satellite.

Feedback or suggestion? Click here.




ElementValue
Catalog48380
NameSTARLINK-2614
Epoch Orbit1459
Epoch Day215.0523547
Epoch Year2021
RAAN331.7913
Inclination53.0544
Eccentricity0.0001297
Argument of Perigee108.7594
Mean Anonmoly251.3536
Mean Motion15.06387913
Decay Rate6.28E-06
L11 48380U 21038AD 21215.05235470 .00000628 00000-0 61064-4 0 9991
L22 48380 53.0544 331.7913 0001297 108.7594 251.3536 15.06387913 14593

Live tracking and technical data element details for STARLINK-2614 (NORAD 48380). STARLINK-2614 can be tracked NOW for your location showing map with azimuth and elevation plus other details from your city location.

Track the satellite on the map from your city or location and see movement details for azimuth, elevation, latitude, longitude, range, height, and movement on the map or in text.







IsCatalogInMostPopularTable: catalog: 48380, numindb: 33
Update: records affected: 1



GetName: 48380 STARLINK-2614

Hit Count: updated at: Wed, 04 Aug 2021 00:23:53 GMT